This is the latest recevied weather packets stored in our database for station/object K3HW. If no packets are shown the sender has not sent any weather packets the latest 10 day(s).
| Time | Temp. | Humidity | Pressure | Rain* | Wind** | Luminosity | Snow |
|---|---|---|---|---|---|---|---|
| 1777517998 | 9.44° C | 88% | 1012.6 hPa | 1.27 mm | - | 0 W/m² | - |
| 1777517695 | 9.44° C | 88% | 1012.6 hPa | 1.27 mm | - | 0 W/m² | - |
| 1777517390 | 9.44° C | 88% | 1012.9 hPa | 0 mm | - | 0 W/m² | - |
| 1777517085 | 9.44° C | 88% | 1013.1 hPa | 0 mm | - | 0 W/m² | - |
| 1777516782 | 9.44° C | 88% | 1012.9 hPa | 0 mm | - | 0 W/m² | - |
| 1777516478 | 9.44° C | 88% | 1012.8 hPa | 0 mm | - | 0 W/m² | - |
| 1777516173 | 9.44° C | 88% | 1012.6 hPa | 0 mm | - | 0 W/m² | - |
| 1777515871 | 9.44° C | 88% | 1012.7 hPa | 0 mm | - | 0 W/m² | - |
| 1777515567 | 9.44° C | 88% | 1012.6 hPa | 0 mm | - | 0 W/m² | - |
| 1777515265 | 9.44° C | 88% | 1012.9 hPa | 0 mm | - | 0 W/m² | - |
| 1777514961 | 9.44° C | 88% | 1012.9 hPa | 0 mm | - | 0 W/m² | - |
| 1777514657 | 9.44° C | 88% | 1013.2 hPa | 0 mm | - | 0 W/m² | - |
| 1777514354 | 9.44° C | 88% | 1012.8 hPa | 0 mm | - | 0 W/m² | - |
| 1777514051 | 9.44° C | 88% | 1013 hPa | 0 mm | - | 0 W/m² | - |
| 1777513749 | 9.44° C | 88% | 1013.1 hPa | 0 mm | - | 0 W/m² | - |
| 1777513445 | 9.44° C | 88% | 1013.2 hPa | 1.78 mm | - | 0 W/m² | - |
| 1777513142 | 9.44° C | 88% | 1013.6 hPa | 3.05 mm | - | 0 W/m² | - |
| 1777512837 | 10° C | 88% | 1013.9 hPa | 3.05 mm | - | 0 W/m² | - |
| 1777512534 | 9.44° C | 87% | 1013.7 hPa | 1.78 mm | - | 0 W/m² | - |
| 1777512231 | 10° C | 87% | 1014.1 hPa | 1.78 mm | - | 0 W/m² | - |
| 1777511928 | 10° C | 87% | 1013.7 hPa | 1.78 mm | - | 0 W/m² | - |
| 1777511626 | 10° C | 87% | 1013.5 hPa | 1.78 mm | - | 0 W/m² | - |
| 1777511324 | 10° C | 86% | 1013.7 hPa | 1.27 mm | - | 0 W/m² | - |
| 1777511019 | 10° C | 85% | 1013.9 hPa | 3.05 mm | - | 0 W/m² | - |
| 1777510716 | 10° C | 84% | 1013.6 hPa | 1.78 mm | - | 0 W/m² | - |
* Rain latest hour (hover to see other rain measurements)
** Current wind speed in m/s (hover to see current wind gust speed)